Regional Weather Roundup
Issued by NWS

Home | Current Version | Previous Version | Text Only | Print | Product List | Glossary Off
Versions: 1 2 3 4 5 6 7 8 9 10 11 12 13 14 15 16 17 18 19 20 21 22 23 24 25 26 27 28 29 30 31 32 33 34 35 36 37 38 39 40 41 42 43 44 45 46 47 48 49 50

686
ASUS44 KJAN 221203
RWRMS

MISSISSIPPI HOURLY WEATHER ROUNDUP
NATIONAL WEATHER SERVICE JACKSON MS
700 AM CDT TUE APR 22 2014

NOTE: "FAIR: INDICATES FEW OR NO CLOUDS BELOW 12,000 FEET WITH NO
SIGNIFICANT WEATHER AND/OR OBSTRUCTIONS TO VISIBILITY.

MSZ001>002-007>008-010>013-018>021-025>028-034>036-221300-
NORTHWEST MISSISSIPPI

CITY           SKY/WX    TMP DP  RH WIND       PRES   REMARKS
CLARKSDALE       N/A     63  63 100 CALM      29.94R
CLEVELAND      CLOUDY    64  64 100 N3        29.94R FOG
GREENWOOD      LGT RAIN  63  61  93 VRB3      29.93R FOG
6HR MIN TEMP:  62; 6HR MAX TEMP:  66; 6HR PCP:  0.28;

GREENVILLE     CLOUDY    64  62  93 NE3       29.93R FOG
6HR MIN TEMP:  64; 6HR MAX TEMP:  65; 6HR PCP:  0.52;

GRENADA        CLOUDY    61  61 100 CALM      29.94R
OLIVE BRANCH   MOCLDY    59  59 100 CALM      29.93R
OXFORD         CLOUDY    61  59  94 CALM      29.95R FOG
TUNICA         PTSUNNY   61  61 100 W5        29.95R
$$

MSZ003>006-009-014>017-022>024-029>033-037>039-221300-
NORTHEAST MISSISSIPPI

CITY           SKY/WX    TMP DP  RH WIND       PRES   REMARKS
BELMONT        CLOUDY    62  61  97 CALM      29.92R FOG
COLUMBUS AFB   CLOUDY    63  63 100 CALM      29.94R
                                      6HR PCP:  0.06;

CORINTH        CLOUDY    63  59  88 CALM      29.92R FOG
GOLDN TRIANGLE MOCLDY    61  57  88 SW7       29.97R FOG
STARKVILLE     RAIN      61  59  94 CALM      29.94S
TUPELO         CLOUDY    63  61  93 CALM      29.92R FOG
6HR MIN TEMP:  62; 6HR MAX TEMP:  69; 6HR PCP:  0.03;

$$

MSZ040-058-221300-
CENTRAL MISSISSIPPI

CITY           SKY/WX    TMP DP  RH WIND       PRES   REMARKS
JACKSON INTL   TSTM      62  61  96 CALM      29.95R
6HR MIN TEMP:  62; 6HR MAX TEMP:  65; 6HR PCP:  0.01;

JACKSON HAWKNS CLOUDY    63  59  87 S3        29.94S
6HR MIN TEMP:  62; 6HR MAX TEMP:  65; 6HR PCP:  0.04;

MERIDIAN KEY   CLOUDY    59  57  93 CALM      29.96R
6HR MIN TEMP:  56; 6HR MAX TEMP:  60;

MERIDIAN NAS   CLOUDY    62  58  86 W8        29.96R
6HR MIN TEMP:  61; 6HR MAX TEMP:  65;

RAYMOND        CLOUDY    63  57  82 CALM      29.94R
VICKSBURG      CLOUDY    66  62  87 SW6       29.93R
6HR MIN TEMP:  65; 6HR MAX TEMP:  69; 6HR PCP: TRACE;

$$

MSZ059>079-221300-
SOUTH MISSISSIPPI

CITY           SKY/WX    TMP DP  RH WIND       PRES   REMARKS
BROOKHAVEN     CLOUDY    63  63 100 SW7       29.97R FOG
COLUMBIA       CLOUDY    59  59 100 MISG      29.96R FOG
HATTIESBURG    NOT AVBL
MCCOMB         CLOUDY    62  61  96 W7        29.97R FOG
6HR MIN TEMP:  59; 6HR MAX TEMP:  62;

NATCHEZ        CLOUDY    64  61  88 SW9       29.95R
6HR MIN TEMP:  63; 6HR MAX TEMP:  66;

PINE BELT      CLOUDY    59  55  88 SW5       29.97F VSB 1/2
6HR MIN TEMP:  55; 6HR MAX TEMP:  61;

$$

MSZ080>082-221300-
COASTAL MISSISSIPPI

CITY           SKY/WX    TMP DP  RH WIND       PRES   REMARKS
BILOXI         CLEAR     61  61 100 VRB2      29.98R
6HR MIN TEMP:  58; 6HR MAX TEMP:  63;

PASCAGOULA     NOT AVBL
GULFPORT       CLEAR     59  55  87 CALM      29.98R HAZE
6HR MIN TEMP:  57; 6HR MAX TEMP:  61;

$$



USA.gov is the U.S. government's official web portal to all federal, state and local government web resources and services.